Location: Moscow
(55.7500°N, 37.5830°E)
Time: 10:09:17
(UTC+03:00)

Vanguard 3 - Pass Details

Date: 09 December 2021
Orbit: 508 x 3260 km, 33.3° (Epoch: 19 January)

Event Time Altitude Azimuth Distance (km) Brightness Sun altitude
Rises 05:33:06 0° 251° (WSW) 7,066 - -25.5°
Reaches altitude 10° 05:38:27 10° 243° (WSW) 6,168 - -24.7°
Exits shadow 05:41:23 16° 238° (WSW) 5,706 11.0 -24.3°
Maximum altitude 05:54:27 33° 190° (S) 4,339 10.7 -22.5°
Drops below altitude 10° 06:07:50 10° 135° (SE) 5,150 12.0 -20.6°
Sets 06:11:49 0° 126° (SE) 5,808 12.7 -20.1°
